Regional Weather Roundup
Issued by NWS

Home | Current Version | Previous Version | Text Only | Print | Product List | Glossary Off
Versions: 1 2 3 4 5 6 7 8 9 10 11 12 13 14 15 16 17 18 19 20 21 22 23 24 25 26 27 28 29 30 31 32 33 34 35 36 37 38 39 40 41 42 43 44 45 46 47 48 49 50

000
ASUS45 KSLC 240710
RWRUT

UTAH REGIONAL WEATHER ROUNDUP
NATIONAL WEATHER SERVICE SALT LAKE CITY UT
100 AM MDT THU JUL 24 2014

UTZ001>011-023>025-240800-

NORTHERN UTAH

CITY           SKY/WX    TMP DP  RH WIND       PRES   REMARKS
HILL AFB       MOCLDY    86  44  22 S14       30.00S
LOGAN          NOT AVBL
OGDEN          PTCLDY    85  43  22 S15       29.95S
PROVO AIRPORT  PTCLDY    82  45  26 SE14      30.05S
SALT LAKE CITY PTCLDY    87  44  22 S20G28    29.94S
VERNAL         CLOUDY    81  41  24 SW7       30.16R
WENDOVER       CLEAR     86  25  10 NW13      29.96R
HEBER CITY     PTCLDY    68  46  45 CALM      30.15S
WEST JORDAN    CLEAR     84  54  34 S14       30.01S

$$

UTZ012>022-026-027-240800-

SOUTHERN UTAH

CITY           SKY/WX    TMP DP  RH WIND       PRES   REMARKS
BRYCE CANYON   CLOUDY    72  45  37 SE14      30.38S
CEDAR CITY     MOCLDY    78  36  21 SE6       30.17S
MILFORD        MOCLDY    83  36  18 S15       30.09R
MOAB/CYNLANDS  CLEAR     80  39  23 SW7       30.07S
PRICE          MOCLDY    79  43  27 E13       30.22F
ST GEORGE      MOSUNNY   88  34  14 SE8       29.95R
KANAB            N/A     73  41  31 CALM      30.18R

$$

REGIONAL REPORTS     COLORADO/ARIZONA

CITY           SKY/WX    TMP DP  RH WIND       PRES   REMARKS
CRAIG, CO      MOCLDY    65  46  50 S6        30.25F
GRAND JUNCTION PTCLDY    84  40  21 E9        30.13R
RIFLE          PTCLDY    74  45  35 CALM      30.22S
MONTROSE       MOCLDY    78  44  29 SE8       30.26R
CORTEZ         CLOUDY    79  49  34 SE15G24   30.32S
PAGE, AZ       MOCLDY    88  50  27 S31G41    30.09R
GRAND CANYON   MOCLDY    75  45  34 S7        30.34R
KINGMAN        PTCLDY    85  29  13 S12       30.02S
FLAGSTAFF      MOCLDY    67  49  52 CALM      30.40S

$$

REGIONAL REPORTS    NEVADA/IDAHO/WYOMING

CITY           SKY/WX    TMP DP  RH WIND       PRES   REMARKS
LAS VEGAS, NV  CLEAR     97  23   7 S14       29.83S HX  90
ELY            CLEAR     71  20  14 SW13      30.19S
ELKO           CLEAR     64  28  25 SW3       30.12R
POCATELLO, ID  CLEAR     73  39  29 S9        30.00R
BURLEY         PTCLDY    72  45  37 W7        30.00R
EVANSTON, WY   PTCLDY    68  42  38 S8        30.23F
ROCK SPRINGS   MOCLDY    70  33  25 NW6       30.24R

$$



USA.gov is the U.S. government's official web portal to all federal, state and local government web resources and services.